Flag for Saudi Arabia Weather past 2 weeks in Medina, Saudi Arabia

Now
97 °F

Sunny.


Feels Like: 93 °F
Forecast: 74 / 108 °F
Wind: No wind

Location: Madinah

Current Time: Jul 30, 2014 at 9:24:14 AM

Latest Report: Jul 30, 2014 at 9:00 AM


Visibility: 5 mi

Pressure: 29.80 "Hg

Humidity: 16%

Dew point: 43 °F

Location of MedinaLocation

Historic Weather in Medina — Graph

°F

Medina temperature yesterday

Maximum temperature yesterday: 109 °F (at 3:00 PM)
Minimum temperature yesterday: 91 °F (at 6:00 AM)
Average temperature yesterday: 101 °F

Past Weeks' High & Low Weather Summary

 TemperatureHumidityPressure
High109 °F (Jul 15, 3:00 PM)35% (Jul 27, 6:00 AM)29.95 "Hg (Jul 27, 6:00 AM)
Low81 °F (Jul 24, 6:00 AM)1% (Jul 16, 2:00 PM)29.71 "Hg (Jul 15, 3:00 PM)
Average97 °F11%29.83 "Hg
* Reported Jul 15 7:00 AM — Jul 30 7:00 AM, Medina, Weather by CustomWeather, © 2014

Note: Actual official high and low records may vary slightly from our data, if they occured in-between our weather recording intervals... More about our weather records

Advertising

Medina weather history for previous 24 hours

 ConditionsComfort  
Time TempWeatherWind HumidityBarometerVisibility
7:00 AM
Jul 30
88 °FSunny.No wind18%29.80 "Hg6 mi
6:00 AM88 °FSunny.No wind19%29.80 "Hg10 mi
5:00 AM90 °FClear.6 mph18%29.77 "Hg10 mi
4:00 AM90 °FClear.9 mph18%29.77 "Hg10 mi
3:00 AM93 °FClear.7 mph17%29.77 "Hg10 mi
1:00 AM97 °FClear.9 mph16%29.77 "Hg10 mi
12:00 AM99 °FClear.15 mph15%29.77 "Hg10 mi
11:00 PM
Jul 29
102 °FClear.13 mph12%29.80 "Hg10 mi
10:00 PM100 °FClear.12 mph12%29.77 "Hg10 mi
9:00 PM102 °FClear.13 mph10%29.77 "Hg10 mi
8:00 PM104 °FClear.18 mph9%29.74 "Hg10 mi
7:00 PM106 °FSunny.17 mph8%29.74 "Hg10 mi
6:00 PM108 °FSunny.16 mph7%29.74 "Hg10 mi
5:00 PM109 °FSunny.23 mph6%29.74 "Hg10 mi
4:00 PM109 °FSunny.18 mph7%29.74 "Hg10 mi
3:00 PM109 °FSunny.15 mph7%29.77 "Hg10 mi
2:00 PM106 °FSunny.12 mph8%29.80 "Hg10 mi
1:00 PM106 °FSunny.15 mph7%29.80 "Hg10 mi
12:00 PM104 °FSunny.12 mph7%29.83 "Hg10 mi
11:00 AM102 °FSunny.10 mph7%29.86 "Hg10 mi
10:00 AM100 °FSunny.9 mph8%29.86 "Hg10 mi
9:00 AM99 °FSunny.12 mph9%29.86 "Hg10 mi
Weather by CustomWeather, © 2014

See weather overviewHow to use our weather pages